Notices

What's New in latest Release from April 7th, 2021:

- Updated Glossary, including Speed of Maximum Gust, and Total Hourly Precipitation

- Updated national and regional climate services offices contacts and prices information

- Addition of station inventory lists for 1981-2010, 1971-2000, and 1961-1990 Normals.

If you haven't already, please take our survey and provide feedback about our website: https://eccc.sondage-survey.ca/f/LanguageSelection.aspx?s=442ca660-fcf1-47c0-95a9-59707d6fd709

Hourly Data Report for November 14, 2019

SAINT JOHN A
NEW BRUNSWICK
Current Station Operator: NAVCAN

45°18'58.000" N
65°53'24.000" W
108.80 m
8104901
71609
YSJ

Download Data

Hourly Data (November 2019)
Hourly Data Report for November 14, 2019
TIME
LST
Temp Definition
°C
Dew Point Definition
°C
Rel Hum Definition
%
Precip. Amount Definition
mm

Wind Dir Definition
10's deg

Wind Spd Definition
km/h
Visibility Definition
km
Stn Press Definition
kPa
Hmdx Definition


Wind Chill Definition


Weather Definition


00:00 -7.4 -11.2 74   31 18 24.1 101.20   -14 LegendNANA
01:00 -7.5 -11.4 74   31 19 24.1 101.32   -15 LegendNANA
02:00 -7.8 -11.6 74   32 17 24.1 101.44   -14 Clear
03:00 -8.3 -11.5 78   36 2 24.1 101.53   -9 LegendNANA
04:00 -8.4 -11.6 78   33 16 24.1 101.56   -15 LegendNANA
05:00 -8.9 -12.0 78   33 9 24.1 101.64   -14 Mostly Cloudy
06:00 -8.4 -11.6 78   35 15 24.1 101.68   -15 LegendNANA
07:00 -8.8 -11.4 82   32 9 24.1 101.78   -13 LegendNANA
08:00 -9.7 -12.4 81   36 7 24.1 101.87   -14 Mostly Cloudy
09:00 -6.7 -10.1 77   2 10 24.1 101.88   -11 LegendNANA
10:00 -6.8 -10.5 75   3 8 24.1 101.93   -11 LegendNANA
11:00 -4.7 -10.1 66   36 1 24.1 101.93   -5 Mostly Cloudy
12:00 -2.5 -8.2 65   20 10 24.1 101.90   -6 LegendNANA
13:00 -2.7 -8.2 66   21 14 24.1 101.86   -8 LegendNANA
14:00 -2.2 -7.3 68   21 5 24.1 101.82   -4 Cloudy
15:00 -1.7 -7.2 66   18 8 24.1 101.77   -5 LegendNANA
16:00 -1.6 -6.5 70   20 7 24.1 101.74   -4 LegendNANA
17:00 -1.8 -5.8 75   10 4 24.1 101.67   -3 Cloudy
18:00 -2.0 -3.3 91   36 2 4.8 101.66   -3 Snow
19:00 -1.2 -1.8 96   17 10 4.8 101.58   -5 Snow
20:00 -0.1 -1.1 93   19 21 4.0 101.51   -6 Snow
21:00 0.2 -0.2 97   19 21 2.0 101.44     Snow
22:00 0.5 0.1 97   23 11 4.8 101.41     Snow
23:00 0.8 0.2 96   22 15 4.8 101.37     Snow,Ice Pellets

Notes on Data Quality.

Legend

  • E = Estimated
  • M = Missing
  • NA = Not Available*
  • [empty] = Indicates an unobserved value
Date modified: